Tenerife, El Salvador

11:56 PM WEST en Julio 17, 2018 (GMT +0100)
Tenerife

Tiempo Historia de GCXO - Marzo, 2018

Change the Weather History Date:

Miércoles, Marzo 14, 2018

  Actual Average Record
Temperature  
Temperatura media 58 ° F -  
Temperatura máxima 68 ° F 62 ° F 73 ° F (2009)
Temperatura mínima 48 ° F 50 ° F 41 ° F (2011)
Degree Days  
Grados día de calefacción 7    
Growing Degree Days 8 (Base 50)    
Moisture  
Punto de rocío 53 ° F    
Average Humidity 85    
Maximum Humidity 100    
Minimum Humidity 59    
Precipitación  
Precipitación 0.00 pul - - ()
Presión al nivel del mar  
Presión al nivel del mar 30.15 pul    
Viento  
Velocidad del viento 8 mph ()    
Velocidad máxima del viento 16 mph    
Max Gust Speed -    
Visibilidad 7.0 Millas    
Eventos Niebla    
Averages and records for this station are not official NWS values.
T = Trace of Precipitation, MM = Missing Value Source: Averaged Metar Reports

Daily Weather History Graph

Daily Weather History Graph

Search for Another Location

Airport or City:

Astronomía

Mar. 14, 2018 Salida Puesta
Hora real 7:16 AM WET 7:13 PM WET
Crepúsculo civil 6:52 AM WET 7:36 PM WET
Crepúsculo náutico 6:25 AM WET 8:04 PM WET
Crepúsculo astronómico 5:58 AM WET 8:31 PM WET
Luna 5:26 AM WET (3/14) 4:36 PM WET (3/14)
Horas de luz 12h 43m
Horas de luz
11h 56m
Creciente menguante, 9% of the Moon is Illuminated
Mar 14
Creciente menguante
Mar 17
Nueva
Mar 24
Cuarto creciente
Mar 31
Luna llena
Abr 8
Cuarto menguante

Hourly Weather History & Observations

Hora (WET) Temp. Punto de rocío Humedad Presión Visibilidad Wind Dir Velocidad del viento Velocidad de ráfagas Precip Eventos Condiciones
12:00 AM 53 ° F 49 ° F 81% 30.21 pul 19 mi Oeste 6.9 mph - -  
12:00 AM 53.6 ° F 48.2 ° F 82% 30.21 pul 6.2 mi Oeste 5.8 mph - N/A   Desconocido
1:00 AM 51.8 ° F 50.0 ° F 94% 30.21 pul 6.2 mi Oeste 10.4 mph - N/A   Desconocido
1:30 AM 51.8 ° F 50.0 ° F 94% 30.21 pul 6.2 mi Oeste 11.5 mph - N/A   Nubes dispersas
2:00 AM 53.6 ° F 51.8 ° F 94% 30.18 pul 6.2 mi Oeste 9.2 mph - N/A   Parcialmente nublado
2:30 AM 51.8 ° F 50.0 ° F 94% 30.18 pul 6.2 mi Oeste 11.5 mph - N/A   Desconocido
3:00 AM 53.6 ° F 51.8 ° F 94% 30.18 pul 6.2 mi Oeste 11.5 mph - N/A   Parcialmente nublado
3:30 AM 53.6 ° F 50.0 ° F 88% 30.15 pul 6.2 mi Variable 1.2 mph - N/A   Desconocido
4:00 AM 50.0 ° F 48.2 ° F 94% 30.15 pul 6.2 mi Variable 1.2 mph - N/A   Desconocido
4:30 AM 51.8 ° F 50.0 ° F 94% 30.15 pul 3.7 mi ONO 3.5 mph - N/A   Parcialmente nublado
5:00 AM 51.8 ° F 50.0 ° F 94% 30.15 pul 1.1 mi Oeste 8.1 mph - N/A   Nubes dispersas
5:30 AM 50.0 ° F 46.4 ° F 87% 30.15 pul 6.2 mi Variable 2.3 mph - N/A   Parcialmente nublado
6:00 AM 50 ° F 47 ° F 85% 30.16 pul 19 mi NO 2.3 mph - -   Nubes dispersas
6:00 AM 50.0 ° F 46.4 ° F 87% 30.15 pul 6.2 mi Variable 2.3 mph - N/A   Parcialmente nublado
6:30 AM 50.0 ° F 48.2 ° F 94% 30.15 pul 6.2 mi Oeste 11.5 mph - N/A   Nubes dispersas
6:44 AM 51.8 ° F 51.8 ° F 100% 30.15 pul 3.7 mi Oeste 11.5 mph - N/A Niebla Bancos de niebla
7:00 AM 53.6 ° F 53.6 ° F 100% 30.15 pul 3.7 mi Oeste 9.2 mph - N/A Niebla Bancos de niebla
8:00 AM 53.6 ° F 53.6 ° F 100% 30.15 pul 6.2 mi ONO 16.1 mph - N/A   Muy nublado
8:30 AM 55.4 ° F 55.4 ° F 100% 30.15 pul 6.2 mi Oeste 13.8 mph - N/A   Muy nublado
9:00 AM 57.2 ° F 55.4 ° F 94% 30.18 pul 6.2 mi Oeste 15.0 mph - N/A   Nubes dispersas
9:30 AM 59.0 ° F 55.4 ° F 88% 30.18 pul 6.2 mi ONO 16.1 mph - N/A   Muy nublado
10:00 AM 57.2 ° F 53.6 ° F 88% 30.18 pul 6.2 mi ONO 16.1 mph - N/A   Muy nublado
10:30 AM 60.8 ° F 53.6 ° F 77% 30.18 pul 6.2 mi ONO 11.5 mph - N/A   Muy nublado
11:00 AM 59.0 ° F 51.8 ° F 77% 30.18 pul 6.2 mi ONO 4.6 mph - N/A   Parcialmente nublado
11:30 AM 64.4 ° F 55.4 ° F 73% 30.18 pul 6.2 mi Variable 1.2 mph - N/A   Parcialmente nublado
12:00 PM 65 ° F 55 ° F 62% 30.13 pul 10 mi Norte 4.6 mph - -   Nubes dispersas
12:00 PM 62.6 ° F 53.6 ° F 72% 30.18 pul 6.2 mi Variable 3.5 mph - N/A   Parcialmente nublado
12:30 PM 66.2 ° F 55.4 ° F 68% 30.18 pul 6.2 mi SSE 4.6 mph - N/A   Parcialmente nublado
1:00 PM 64.4 ° F 55.4 ° F 73% 30.15 pul 6.2 mi Variable 4.6 mph - N/A   Parcialmente nublado
1:30 PM 66.2 ° F 53.6 ° F 64% 30.15 pul 6.2 mi NO 8.1 mph - N/A   Parcialmente nublado
2:00 PM 66.2 ° F 55.4 ° F 68% 30.15 pul 6.2 mi Variable 4.6 mph - N/A   Parcialmente nublado
2:30 PM 66.2 ° F 57.2 ° F 73% 30.12 pul 6.2 mi SE 5.8 mph - N/A   Parcialmente nublado
3:00 PM 65 ° F 54 ° F 59% 30.09 pul 19 mi ONO 12.7 mph - -   Nubes dispersas
3:00 PM 64.4 ° F 53.6 ° F 68% 30.12 pul 6.2 mi NO 11.5 mph - N/A   Parcialmente nublado
3:30 PM 62.6 ° F 53.6 ° F 72% 30.12 pul 6.2 mi ONO 15.0 mph - N/A   Parcialmente nublado
4:00 PM 64.4 ° F 55.4 ° F 73% 30.12 pul 6.2 mi ONO 16.1 mph - N/A   Nubes dispersas
4:30 PM 62.6 ° F 53.6 ° F 72% 30.12 pul 6.2 mi ONO 13.8 mph - N/A   Nubes dispersas
5:00 PM 60.8 ° F 53.6 ° F 77% 30.12 pul 6.2 mi NO 10.4 mph - N/A   Muy nublado
6:00 PM 59 ° F 54 ° F 79% 30.09 pul 19 mi Oeste 11.5 mph - -   Muy nublado
6:00 PM 59.0 ° F 55.4 ° F 88% 30.12 pul 6.2 mi Oeste 11.5 mph - N/A   Muy nublado
6:30 PM 59.0 ° F 55.4 ° F 88% 30.12 pul 6.2 mi ONO 11.5 mph - N/A   Muy nublado
7:00 PM 57.2 ° F 53.6 ° F 88% 30.12 pul 6.2 mi Oeste 9.2 mph - N/A   Muy nublado
7:30 PM 55.4 ° F 53.6 ° F 94% 30.12 pul 6.2 mi Oeste 8.1 mph - N/A   Muy nublado
8:00 PM 55.4 ° F 53.6 ° F 94% 30.12 pul 6.2 mi Oeste 11.5 mph - N/A   Nubes dispersas
8:30 PM 55.4 ° F 53.6 ° F 94% 30.12 pul 6.2 mi Oeste 12.7 mph - N/A   Nubes dispersas
9:00 PM - - %  pul - Sin viento Sin viento - -  
9:00 PM 55.4 ° F 53.6 ° F 94% 30.12 pul 6.2 mi Oeste 12.7 mph - N/A   Nubes dispersas
9:30 PM 55.4 ° F 53.6 ° F 94% 30.12 pul 6.2 mi Oeste 9.2 mph - N/A   Nubes dispersas
10:00 PM 53.6 ° F 51.8 ° F 94% 30.12 pul 6.2 mi Oeste 3.5 mph - N/A   Parcialmente nublado
10:30 PM 53.6 ° F 51.8 ° F 94% 30.12 pul 6.2 mi Oeste 9.2 mph - N/A   Nubes dispersas
11:00 PM 53.6 ° F 51.8 ° F 94% 30.12 pul 6.2 mi Oeste 5.8 mph - N/A   Parcialmente nublado
11:30 PM 53.6 ° F 51.8 ° F 94% 30.12 pul 6.2 mi Oeste 9.2 mph - N/A   Desconocido